| time (UTC) | temp C | wind direction | speed KPH | gust KPH | rain 1hr cm | rain 24hr cm | rain mn cm | humidity % | barometer mb |
| 20260906064307 | 28 | 174 | 6.4 | 6.4 | 0.00 | 0.00 | 0.00 | 74 | 982.5 |
| 20260906063807 | 28 | 180 | 4.8 | 4.8 | 0.00 | 0.00 | 0.00 | 73 | 982.5 |
| 20260906063307 | 28 | 229 | 8.0 | 8.0 | 0.00 | 0.00 | 0.00 | 73 | 982.5 |
| 20260906062806 | 28 | 236 | 6.4 | 6.4 | 0.00 | 0.00 | 0.00 | 72 | 982.5 |
| 20260906062307 | 28 | 234 | 9.7 | 9.7 | 0.00 | 0.00 | 0.00 | 73 | 982.4 |
| 20260906061808 | 28 | 221 | 11.3 | 11.3 | 0.00 | 0.00 | 0.00 | 73 | 982.6 |
| 20260906061307 | 28 | 208 | 9.7 | 9.7 | 0.00 | 0.00 | 0.00 | 73 | 982.5 |
| 20260906060807 | 28 | 194 | 8.0 | 8.0 | 0.00 | 0.00 | 0.00 | 74 | 982.5 |
| 20260906060306 | 27 | 184 | 6.4 | 6.4 | 0.00 | 0.00 | 0.00 | 75 | 982.4 |
| 20260906055807 | 27 | 176 | 6.4 | 6.4 | 0.00 | 0.00 | 0.00 | 75 | 982.5 |
| 20260906055308 | 28 | 179 | 8.0 | 8.0 | 0.00 | 0.00 | 0.00 | 74 | 982.6 |
| 20260906054806 | 28 | 179 | 8.0 | 8.0 | 0.00 | 0.00 | 0.00 | 74 | 982.6 |
| 20260906054307 | 28 | 182 | 6.4 | 6.4 | 0.00 | 0.00 | 0.00 | 74 | 982.5 |
| 20260906053807 | 28 | 196 | 6.4 | 6.4 | 0.00 | 0.00 | 0.00 | 74 | 982.7 |
| 20260906053308 | 28 | 174 | 9.7 | 9.7 | 0.00 | 0.00 | 0.00 | 74 | 982.9 |
| 20260906052806 | 28 | 165 | 6.4 | 6.4 | 0.00 | 0.00 | 0.00 | 74 | 982.8 |
| 20260906052307 | 28 | 152 | 8.0 | 8.0 | 0.00 | 0.00 | 0.00 | 73 | 982.9 |
| 20260906051807 | 28 | 159 | 8.0 | 8.0 | 0.00 | 0.00 | 0.00 | 72 | 982.9 |
| 20260906051307 | 28 | 153 | 11.3 | 11.3 | 0.00 | 0.00 | 0.00 | 72 | 983.0 |
| 20260906050807 | 28 | 150 | 6.4 | 6.4 | 0.00 | 0.00 | 0.00 | 71 | 983.2 |
| 20260906050306 | 28 | 150 | 4.8 | 4.8 | 0.00 | 0.00 | 0.00 | 71 | 983.1 |
| 20260906045807 | 28 | 146 | 6.4 | 6.4 | 0.00 | 0.00 | 0.00 | 70 | 983.1 |
| 20260906045307 | 29 | 166 | 6.4 | 6.4 | 0.00 | 0.00 | 0.00 | 69 | 983.0 |
| 20260906044807 | 29 | 152 | 9.7 | 9.7 | 0.00 | 0.00 | 0.00 | 69 | 983.1 |
| 20260906044307 | 28 | 152 | 6.4 | 6.4 | 0.00 | 0.00 | 0.00 | 70 | 983.2 |
| 20260906043808 | 31 | 175 | 12.9 | 12.9 | 0.00 | 0.00 | 0.00 | 63 | 983.0 |
| 20260906043307 | 31 | 31 | 4.8 | 4.8 | 0.00 | 0.00 | 0.00 | 64 | 983.0 |
| 20260906042807 | 31 | 20 | 6.4 | 6.4 | 0.00 | 0.00 | 0.00 | 64 | 983.0 |
| 20260906042307 | 31 | 28 | 4.8 | 4.8 | 0.00 | 0.00 | 0.00 | 62 | 983.1 |
| 20260906041807 | 31 | 11 | 4.8 | 4.8 | 0.00 | 0.00 | 0.00 | 61 | 983.0 |
| 20260906041307 | 32 | 0.0 | 0.0 | 0.00 | 0.00 | 0.00 | 59 | 983.1 | |
| 20260906040807 | 32 | 0.0 | 0.0 | 0.00 | 0.00 | 0.00 | 58 | 983.1 | |
| 20260906040307 | 32 | 0.0 | 0.0 | 0.00 | 0.00 | 0.00 | 58 | 983.1 | |
| 20260906035807 | 32 | 0.0 | 0.0 | 0.00 | 0.00 | 0.00 | 56 | 983.0 | |
| 20260906035307 | 32 | 0.0 | 0.0 | 0.00 | 0.00 | 0.00 | 57 | 983.0 | |
| 20260906034806 | 32 | 0.0 | 0.0 | 0.00 | 0.00 | 0.00 | 58 | 982.9 | |
| 20260906034306 | 32 | 0.0 | 0.0 | 0.00 | 0.00 | 0.00 | 59 | 983.1 | |
| 20260906033806 | 32 | 0.0 | 0.0 | 0.00 | 0.00 | 0.00 | 59 | 983.0 | |
| 20260906033307 | 32 | 340 | 1.6 | 1.6 | 0.00 | 0.00 | 0.00 | 59 | 983.1 |
| 20260906032806 | 32 | 326 | 3.2 | 3.2 | 0.00 | 0.00 | 0.00 | 58 | 983.1 |
| 20260906032307 | 32 | 322 | 3.2 | 3.2 | 0.00 | 0.00 | 0.00 | 59 | 983.1 |
| 20260906031806 | 32 | 322 | 3.2 | 3.2 | 0.00 | 0.00 | 0.00 | 60 | 983.1 |
| 20260906031307 | 32 | 322 | 3.2 | 3.2 | 0.00 | 0.00 | 0.00 | 60 | 982.9 |
| 20260906030806 | 32 | 320 | 4.8 | 4.8 | 0.00 | 0.00 | 0.00 | 59 | 982.8 |
| 20260906030307 | 32 | 320 | 4.8 | 4.8 | 0.00 | 0.00 | 0.00 | 60 | 982.7 |
| 20260906025807 | 32 | 332 | 3.2 | 3.2 | 0.00 | 0.00 | 0.00 | 60 | 982.7 |
| 20260906025306 | 32 | 335 | 3.2 | 3.2 | 0.00 | 0.00 | 0.00 | 60 | 982.7 |
| 20260906024806 | 32 | 4 | 1.6 | 1.6 | 0.00 | 0.00 | 0.00 | 59 | 982.7 |
| 20260906024306 | 32 | 4 | 3.2 | 3.2 | 0.00 | 0.00 | 0.00 | 59 | 982.7 |
| 20260906023807 | 32 | 2 | 4.8 | 4.8 | 0.00 | 0.00 | 0.00 | 59 | 982.7 |
| 20260906023306 | 32 | 4 | 3.2 | 3.2 | 0.00 | 0.00 | 0.00 | 58 | 982.5 |
| 20260906022807 | 32 | 9 | 3.2 | 3.2 | 0.00 | 0.00 | 0.00 | 58 | 982.3 |
| 20260906022307 | 32 | 9 | 3.2 | 3.2 | 0.00 | 0.00 | 0.00 | 58 | 982.4 |
| 20260906021807 | 32 | 9 | 1.6 | 1.6 | 0.00 | 0.00 | 0.00 | 58 | 982.4 |
| 20260906021307 | 32 | 10 | 1.6 | 1.6 | 0.00 | 0.00 | 0.00 | 58 | 982.2 |
| 20260906020806 | 32 | 9 | 3.2 | 3.2 | 0.00 | 0.00 | 0.00 | 58 | 982.3 |
| 20260906020306 | 32 | 10 | 3.2 | 3.2 | 0.00 | 0.00 | 0.00 | 58 | 982.2 |
| 20260906015807 | 32 | 18 | 3.2 | 3.2 | 0.00 | 0.00 | 0.00 | 57 | 982.2 |
| 20260906015306 | 32 | 18 | 3.2 | 3.2 | 0.00 | 0.00 | 0.00 | 58 | 982.1 |
| 20260906014806 | 32 | 19 | 3.2 | 3.2 | 0.00 | 0.00 | 0.00 | 58 | 982.1 |
| 20260906014305 | 32 | 18 | 1.6 | 1.6 | 0.00 | 0.00 | 0.00 | 58 | 982.2 |
| 20260906013807 | 32 | 23 | 3.2 | 3.2 | 0.00 | 0.00 | 0.00 | 58 | 982.2 |
| 20260906013306 | 32 | 23 | 3.2 | 3.2 | 0.00 | 0.00 | 0.00 | 58 | 982.3 |
| 20260906012807 | 32 | 17 | 3.2 | 3.2 | 0.00 | 0.00 | 0.00 | 58 | 982.2 |
| 20260906012306 | 32 | 354 | 4.8 | 4.8 | 0.00 | 0.00 | 0.00 | 58 | 982.3 |
| 20260906011806 | 32 | 346 | 3.2 | 3.2 | 0.00 | 0.00 | 0.00 | 58 | 982.1 |
| 20260906011306 | 32 | 346 | 3.2 | 3.2 | 0.00 | 0.00 | 0.00 | 58 | 982.0 |
| 20260906010806 | 32 | 316 | 3.2 | 3.2 | 0.00 | 0.00 | 0.00 | 57 | 981.9 |
| 20260906010307 | 32 | 291 | 3.2 | 3.2 | 0.00 | 0.00 | 0.00 | 58 | 981.7 |
| 20260906005807 | 32 | 301 | 3.2 | 3.2 | 0.00 | 0.00 | 0.00 | 58 | 981.7 |
| 20260906005307 | 32 | 301 | 3.2 | 3.2 | 0.00 | 0.00 | 0.00 | 58 | 981.7 |
| 20260906004807 | 32 | 23 | 1.6 | 1.6 | 0.00 | 0.00 | 0.00 | 57 | 981.7 |
| 20260906004307 | 32 | 37 | 1.6 | 1.6 | 0.00 | 0.00 | 0.00 | 56 | 981.7 |
| 20260906003806 | 32 | 35 | 1.6 | 1.6 | 0.00 | 0.00 | 0.00 | 57 | 981.6 |
| 20260906003307 | 32 | 25 | 3.2 | 3.2 | 0.00 | 0.00 | 0.00 | 57 | 981.7 |
| 20260906002806 | 32 | 30 | 3.2 | 3.2 | 0.00 | 0.00 | 0.00 | 57 | 981.6 |
| 20260906002306 | 33 | 17 | 1.6 | 1.6 | 0.00 | 0.00 | 0.00 | 56 | 981.8 |
| 20260906001806 | 33 | 9 | 1.6 | 1.6 | 0.00 | 0.00 | 0.00 | 56 | 981.8 |
| 20260906001307 | 33 | 358 | 6.4 | 6.4 | 0.00 | 0.00 | 0.00 | 55 | 981.7 |
| 20260906000806 | 33 | 352 | 8.0 | 8.0 | 0.00 | 0.00 | 0.00 | 55 | 981.7 |
| 20260906000306 | 33 | 342 | 6.4 | 6.4 | 0.00 | 0.00 | 0.00 | 54 | 981.9 |
| 20260905235807 | 33 | 6 | 6.4 | 6.4 | 0.00 | 0.00 | 0.00 | 52 | 981.8 |
| 20260905235307 | 34 | 27 | 6.4 | 6.4 | 0.00 | 0.00 | 0.00 | 52 | 981.9 |
| 20260905234806 | 34 | 13 | 6.4 | 6.4 | 0.00 | 0.00 | 0.00 | 51 | 981.9 |
| 20260905234307 | 34 | 19 | 4.8 | 4.8 | 0.00 | 0.00 | 0.00 | 50 | 981.8 |
| 20260905233806 | 35 | 15 | 3.2 | 3.2 | 0.00 | 0.00 | 0.00 | 50 | 981.9 |
| 20260905233307 | 35 | 44 | 4.8 | 4.8 | 0.00 | 0.00 | 0.00 | 49 | 981.8 |
| 20260905232806 | 35 | 56 | 4.8 | 4.8 | 0.00 | 0.00 | 0.00 | 49 | 981.8 |
| 20260905232306 | 35 | 54 | 6.4 | 6.4 | 0.00 | 0.00 | 0.00 | 50 | 981.9 |
| 20260905231806 | 35 | 30 | 6.4 | 6.4 | 0.00 | 0.00 | 0.00 | 49 | 981.8 |
| 20260905231307 | 35 | 12 | 8.0 | 8.0 | 0.00 | 0.00 | 0.00 | 49 | 981.7 |
| 20260905230806 | 35 | 30 | 8.0 | 8.0 | 0.00 | 0.00 | 0.00 | 48 | 981.8 |
| 20260905230306 | 35 | 25 | 8.0 | 8.0 | 0.00 | 0.00 | 0.00 | 48 | 981.8 |
| 20260905225807 | 35 | 15 | 3.2 | 3.2 | 0.00 | 0.00 | 0.00 | 48 | 981.9 |
| 20260905225307 | 35 | 69 | 4.8 | 4.8 | 0.00 | 0.00 | 0.00 | 48 | 981.7 |
| 20260905224807 | 35 | 350 | 8.0 | 8.0 | 0.00 | 0.00 | 0.00 | 47 | 981.7 |
| 20260905224306 | 35 | 11 | 3.2 | 3.2 | 0.00 | 0.00 | 0.00 | 47 | 981.6 |
| 20260905223807 | 35 | 60 | 4.8 | 4.8 | 0.00 | 0.00 | 0.00 | 46 | 981.6 |
| 20260905223306 | 35 | 71 | 4.8 | 4.8 | 0.00 | 0.00 | 0.00 | 45 | 981.6 |
| 20260905222807 | 35 | 67 | 1.6 | 1.6 | 0.00 | 0.00 | 0.00 | 45 | 981.7 |
| 20260905222307 | 35 | 50 | 3.2 | 3.2 | 0.00 | 0.00 | 0.00 | 46 | 981.6 |
| 20260905221806 | 35 | 63 | 8.0 | 8.0 | 0.00 | 0.00 | 0.00 | 46 | 981.6 |
| 20260905221307 | 35 | 60 | 3.2 | 3.2 | 0.00 | 0.00 | 0.00 | 46 | 981.7 |
| 20260905220806 | 35 | 23 | 4.8 | 4.8 | 0.00 | 0.00 | 0.00 | 46 | 981.7 |
| 20260905220306 | 36 | 59 | 11.3 | 11.3 | 0.00 | 0.00 | 0.00 | 46 | 981.6 |
| 20260905215807 | 36 | 21 | 8.0 | 8.0 | 0.00 | 0.00 | 0.00 | 45 | 981.7 |
| 20260905215307 | 36 | 100 | 4.8 | 4.8 | 0.00 | 0.00 | 0.00 | 46 | 981.7 |
| 20260905214807 | 35 | 0.0 | 0.0 | 0.00 | 0.00 | 0.00 | 46 | 981.7 | |
| 20260905214307 | 35 | 7 | 3.2 | 3.2 | 0.00 | 0.00 | 0.00 | 46 | 981.7 |
| 20260905213806 | 36 | 33 | 3.2 | 3.2 | 0.00 | 0.00 | 0.00 | 45 | 981.7 |
| 20260905213306 | 35 | 166 | 3.2 | 3.2 | 0.00 | 0.00 | 0.00 | 46 | 981.9 |
| 20260905212807 | 35 | 99 | 6.4 | 6.4 | 0.00 | 0.00 | 0.00 | 48 | 981.8 |
| 20260905212307 | 35 | 108 | 3.2 | 3.2 | 0.00 | 0.00 | 0.00 | 47 | 982.0 |
| 20260905211807 | 35 | 63 | 8.0 | 8.0 | 0.00 | 0.00 | 0.00 | 47 | 982.1 |
| 20260905211306 | 35 | 60 | 0.0 | 0.0 | 0.00 | 0.00 | 0.00 | 48 | 982.0 |
| 20260905210806 | 35 | 9 | 1.6 | 1.6 | 0.00 | 0.00 | 0.00 | 49 | 982.1 |
| 20260905210306 | 35 | 56 | 3.2 | 3.2 | 0.00 | 0.00 | 0.00 | 49 | 982.1 |
| 20260905205807 | 35 | 87 | 9.7 | 9.7 | 0.00 | 0.00 | 0.00 | 50 | 982.2 |
| 20260905205307 | 35 | 44 | 6.4 | 6.4 | 0.00 | 0.00 | 0.00 | 50 | 982.3 |
| 20260905204807 | 35 | 46 | 8.0 | 8.0 | 0.00 | 0.00 | 0.00 | 50 | 982.5 |
| 20260905204306 | 35 | 66 | 3.2 | 3.2 | 0.00 | 0.00 | 0.00 | 49 | 982.3 |
| 20260905203807 | 35 | 108 | 6.4 | 6.4 | 0.00 | 0.00 | 0.00 | 49 | 982.4 |
| 20260905203307 | 35 | 101 | 8.0 | 8.0 | 0.00 | 0.00 | 0.00 | 49 | 982.5 |
| 20260905202807 | 35 | 132 | 8.0 | 8.0 | 0.00 | 0.00 | 0.00 | 47 | 982.4 |
| 20260905202306 | 35 | 82 | 9.7 | 9.7 | 0.00 | 0.00 | 0.00 | 47 | 982.5 |
| 20260905201806 | 35 | 68 | 1.6 | 1.6 | 0.00 | 0.00 | 0.00 | 49 | 982.4 |
| 20260905201306 | 35 | 25 | 3.2 | 3.2 | 0.00 | 0.00 | 0.00 | 48 | 982.6 |
| 20260905200806 | 35 | 351 | 6.4 | 6.4 | 0.00 | 0.00 | 0.00 | 48 | 982.6 |
| 20260905200306 | 35 | 29 | 3.2 | 3.2 | 0.00 | 0.00 | 0.00 | 50 | 982.6 |
| 20260905195807 | 35 | 27 | 4.8 | 4.8 | 0.00 | 0.00 | 0.00 | 50 | 982.8 |
| 20260905195307 | 35 | 60 | 6.4 | 6.4 | 0.00 | 0.00 | 0.00 | 49 | 982.7 |
| 20260905194806 | 35 | 20 | 6.4 | 6.4 | 0.00 | 0.00 | 0.00 | 49 | 982.8 |
| 20260905194306 | 35 | 339 | 3.2 | 3.2 | 0.00 | 0.00 | 0.00 | 49 | 982.9 |
| 20260905193805 | 35 | 84 | 1.6 | 1.6 | 0.00 | 0.00 | 0.00 | 49 | 983.0 |
| 20260905193304 | 35 | 108 | 4.8 | 4.8 | 0.00 | 0.00 | 0.00 | 48 | 983.1 |
| 20260905192806 | 35 | 68 | 4.8 | 4.8 | 0.00 | 0.00 | 0.00 | 49 | 983.2 |
| 20260905192306 | 35 | 50 | 3.2 | 3.2 | 0.00 | 0.00 | 0.00 | 48 | 983.2 |
| 20260905191806 | 35 | 29 | 3.2 | 3.2 | 0.00 | 0.00 | 0.00 | 48 | 983.3 |
| 20260905191305 | 35 | 1 | 3.2 | 3.2 | 0.00 | 0.00 | 0.00 | 48 | 983.4 |
| 20260905190806 | 35 | 96 | 9.7 | 9.7 | 0.00 | 0.00 | 0.00 | 50 | 983.5 |
| 20260905190305 | 34 | 207 | 1.6 | 1.6 | 0.00 | 0.00 | 0.00 | 50 | 983.6 |
| 20260905185806 | 34 | 83 | 4.8 | 4.8 | 0.00 | 0.00 | 0.00 | 50 | 983.8 |
| 20260905185306 | 34 | 25 | 4.8 | 4.8 | 0.00 | 0.00 | 0.00 | 50 | 983.8 |
| 20260905184805 | 35 | 103 | 8.0 | 8.0 | 0.00 | 0.00 | 0.00 | 49 | 983.9 |
| 20260905184306 | 35 | 108 | 3.2 | 3.2 | 0.00 | 0.00 | 0.00 | 50 | 983.9 |
| 20260905183805 | 35 | 37 | 1.6 | 1.6 | 0.00 | 0.00 | 0.00 | 49 | 984.0 |
| 20260905183305 | 35 | 52 | 1.6 | 1.6 | 0.00 | 0.00 | 0.00 | 52 | 984.1 |
| 20260905182806 | 34 | 302 | 0.0 | 0.0 | 0.00 | 0.00 | 0.00 | 52 | 984.1 |
| 20260905182306 | 34 | 0.0 | 0.0 | 0.00 | 0.00 | 0.00 | 52 | 984.1 | |
| 20260905181806 | 34 | 352 | 3.2 | 3.2 | 0.00 | 0.00 | 0.00 | 52 | 984.1 |
| 20260905181305 | 34 | 48 | 3.2 | 3.2 | 0.00 | 0.00 | 0.00 | 51 | 984.1 |
| 20260905180806 | 34 | 87 | 6.4 | 6.4 | 0.00 | 0.00 | 0.00 | 53 | 984.0 |
| 20260905180305 | 33 | 93 | 3.2 | 3.2 | 0.00 | 0.00 | 0.00 | 53 | 984.2 |
| 20260905175806 | 33 | 94 | 9.7 | 9.7 | 0.00 | 0.00 | 0.00 | 53 | 984.3 |
| 20260905175306 | 33 | 343 | 3.2 | 3.2 | 0.00 | 0.00 | 0.00 | 52 | 984.2 |
| 20260905174805 | 34 | 34 | 11.3 | 11.3 | 0.00 | 0.00 | 0.00 | 52 | 984.3 |
| 20260905174305 | 34 | 109 | 9.7 | 9.7 | 0.00 | 0.00 | 0.00 | 52 | 984.3 |
| 20260905173805 | 34 | 112 | 12.9 | 12.9 | 0.00 | 0.00 | 0.00 | 51 | 984.3 |
| 20260905173305 | 34 | 122 | 1.6 | 1.6 | 0.00 | 0.00 | 0.00 | 52 | 984.3 |
| 20260905172805 | 33 | 74 | 4.8 | 4.8 | 0.00 | 0.00 | 0.00 | 53 | 984.5 |
| 20260905172305 | 33 | 38 | 6.4 | 6.4 | 0.00 | 0.00 | 0.00 | 55 | 984.5 |
| 20260905171804 | 33 | 49 | 8.0 | 8.0 | 0.00 | 0.00 | 0.00 | 54 | 984.6 |
| 20260905171307 | 33 | 98 | 4.8 | 4.8 | 0.00 | 0.00 | 0.00 | 54 | 984.6 |
| 20260905170805 | 33 | 66 | 4.8 | 4.8 | 0.00 | 0.00 | 0.00 | 58 | 984.7 |
| 20260905170306 | 33 | 6 | 4.8 | 4.8 | 0.00 | 0.00 | 0.00 | 57 | 984.8 |
| 20260905165806 | 33 | 41 | 3.2 | 3.2 | 0.00 | 0.00 | 0.00 | 58 | 985.0 |
| 20260905165306 | 33 | 251 | 1.6 | 1.6 | 0.00 | 0.00 | 0.00 | 57 | 985.0 |
| 20260905164805 | 33 | 360 | 11.3 | 11.3 | 0.00 | 0.00 | 0.00 | 58 | 985.2 |
| 20260905164306 | 33 | 21 | 3.2 | 3.2 | 0.00 | 0.00 | 0.00 | 59 | 985.2 |
| 20260905163805 | 33 | 353 | 3.2 | 3.2 | 0.00 | 0.00 | 0.00 | 59 | 985.1 |
| 20260905163306 | 33 | 22 | 1.6 | 1.6 | 0.00 | 0.00 | 0.00 | 60 | 985.3 |
| 20260905162805 | 32 | 327 | 1.6 | 1.6 | 0.00 | 0.00 | 0.00 | 60 | 985.3 |
| 20260905162306 | 32 | 321 | 1.6 | 1.6 | 0.00 | 0.00 | 0.00 | 60 | 985.3 |
| 20260905161805 | 32 | 39 | 1.6 | 1.6 | 0.00 | 0.00 | 0.00 | 62 | 985.4 |
| 20260905161305 | 32 | 77 | 8.0 | 8.0 | 0.00 | 0.00 | 0.00 | 63 | 985.6 |
| 20260905160805 | 32 | 315 | 3.2 | 3.2 | 0.00 | 0.00 | 0.00 | 64 | 985.7 |
| 20260905160304 | 31 | 3 | 6.4 | 6.4 | 0.00 | 0.00 | 0.00 | 64 | 985.7 |
| 20260905155806 | 31 | 304 | 6.4 | 6.4 | 0.00 | 0.00 | 0.00 | 62 | 985.7 |
| 20260905155306 | 31 | 340 | 6.4 | 6.4 | 0.00 | 0.00 | 0.00 | 65 | 985.6 |
| 20260905154804 | 31 | 43 | 1.6 | 1.6 | 0.00 | 0.00 | 0.00 | 66 | 985.6 |
| 20260905154305 | 31 | 6 | 1.6 | 1.6 | 0.00 | 0.00 | 0.00 | 65 | 985.6 |
| 20260905153805 | 31 | 6 | 3.2 | 3.2 | 0.00 | 0.00 | 0.00 | 67 | 985.7 |
| 20260905153306 | 31 | 333 | 1.6 | 1.6 | 0.00 | 0.00 | 0.00 | 69 | 985.6 |
| 20260905152806 | 30 | 344 | 4.8 | 4.8 | 0.00 | 0.00 | 0.00 | 68 | 985.6 |
| 20260905152306 | 30 | 328 | 0.0 | 0.0 | 0.00 | 0.00 | 0.00 | 71 | 985.7 |
| 20260905151805 | 30 | 321 | 1.6 | 1.6 | 0.00 | 0.00 | 0.00 | 72 | 985.9 |
| 20260905151305 | 30 | 347 | 4.8 | 4.8 | 0.00 | 0.00 | 0.00 | 72 | 985.7 |
| 20260905150804 | 29 | 302 | 1.6 | 1.6 | 0.00 | 0.00 | 0.00 | 73 | 985.6 |
| 20260905150305 | 29 | 293 | 4.8 | 4.8 | 0.00 | 0.00 | 0.00 | 75 | 985.7 |
| 20260905145806 | 29 | 4 | 3.2 | 3.2 | 0.00 | 0.00 | 0.00 | 75 | 985.6 |
| 20260905145306 | 29 | 330 | 3.2 | 3.2 | 0.00 | 0.00 | 0.00 | 76 | 985.5 |
| 20260905144805 | 29 | 326 | 1.6 | 1.6 | 0.00 | 0.00 | 0.00 | 76 | 985.7 |
| 20260905144304 | 28 | 328 | 3.2 | 3.2 | 0.00 | 0.00 | 0.00 | 76 | 985.7 |
| 20260905143806 | 28 | 331 | 3.2 | 3.2 | 0.00 | 0.00 | 0.00 | 77 | 985.6 |
| 20260905143305 | 29 | 0.0 | 0.0 | 0.00 | 0.00 | 0.00 | 76 | 985.6 | |
| 20260905142805 | 29 | 0.0 | 0.0 | 0.00 | 0.00 | 0.00 | 76 | 985.5 | |
| 20260905142306 | 28 | 0.0 | 0.0 | 0.00 | 0.00 | 0.00 | 76 | 985.7 | |
| 20260905141805 | 28 | 0.0 | 0.0 | 0.00 | 0.00 | 0.00 | 76 | 985.6 | |
| 20260905141305 | 28 | 0.0 | 0.0 | 0.00 | 0.00 | 0.00 | 76 | 985.7 | |
| 20260905140806 | 28 | 202 | 0.0 | 0.0 | 0.00 | 0.00 | 0.00 | 78 | 985.7 |
| 20260905140305 | 28 | 202 | 0.0 | 0.0 | 0.00 | 0.00 | 0.00 | 79 | 985.7 |
| 20260905135804 | 28 | 0.0 | 0.0 | 0.00 | 0.00 | 0.00 | 80 | 985.7 | |
| 20260905135307 | 27 | 0.0 | 0.0 | 0.00 | 0.00 | 0.00 | 81 | 985.7 | |
| 20260905134804 | 27 | 0.0 | 0.0 | 0.00 | 0.00 | 0.00 | 81 | 985.9 | |
| 20260905134305 | 27 | 0.0 | 0.0 | 0.00 | 0.00 | 0.00 | 82 | 985.8 | |
| 20260905133805 | 27 | 181 | 1.6 | 1.6 | 0.00 | 0.00 | 0.00 | 81 | 985.7 |
| 20260905133305 | 27 | 0.0 | 0.0 | 0.00 | 0.00 | 0.00 | 82 | 985.7 | |
| 20260905132805 | 26 | 0.0 | 0.0 | 0.00 | 0.00 | 0.00 | 83 | 985.7 | |
| 20260905132306 | 26 | 0.0 | 0.0 | 0.00 | 0.00 | 0.00 | 85 | 985.8 | |
| 20260905131805 | 26 | 59 | 4.8 | 4.8 | 0.00 | 0.00 | 0.00 | 85 | 985.8 |
| 20260905131305 | 25 | 52 | 3.2 | 3.2 | 0.00 | 0.00 | 0.00 | 87 | 985.9 |
| 20260905130804 | 25 | 50 | 3.2 | 3.2 | 0.00 | 0.00 | 0.00 | 88 | 985.8 |
| 20260905130306 | 25 | 73 | 3.2 | 3.2 | 0.00 | 0.00 | 0.00 | 89 | 985.9 |
| 20260905125805 | 24 | 30 | 4.8 | 4.8 | 0.00 | 0.00 | 0.00 | 90 | 985.9 |
| 20260905125306 | 24 | 36 | 4.8 | 4.8 | 0.00 | 0.00 | 0.00 | 90 | 985.7 |
| 20260905124806 | 24 | 14 | 4.8 | 4.8 | 0.00 | 0.00 | 0.00 | 89 | 985.9 |
| 20260905124305 | 24 | 8 | 6.4 | 6.4 | 0.00 | 0.00 | 0.00 | 89 | 985.7 |
| 20260905123804 | 25 | 5 | 4.8 | 4.8 | 0.00 | 0.00 | 0.00 | 87 | 985.7 |
| 20260905123306 | 25 | 6 | 3.2 | 3.2 | 0.00 | 0.00 | 0.00 | 86 | 985.5 |
| 20260905122806 | 25 | 325 | 1.6 | 1.6 | 0.00 | 0.00 | 0.00 | 83 | 985.5 |
| 20260905122307 | 26 | 283 | 3.2 | 3.2 | 0.00 | 0.00 | 0.00 | 77 | 985.5 |
| 20260905121804 | 26 | 138 | 1.6 | 1.6 | 0.00 | 0.00 | 0.00 | 76 | 985.5 |
| 20260905121305 | 26 | 0.0 | 0.0 | 0.00 | 0.00 | 0.00 | 77 | 985.4 | |
| 20260905120804 | 26 | 0.0 | 0.0 | 0.00 | 0.00 | 0.00 | 78 | 985.4 | |
| 20260905120305 | 26 | 138 | 1.6 | 1.6 | 0.00 | 0.00 | 0.00 | 79 | 985.2 |
| 20260905115806 | 26 | 61 | 4.8 | 4.8 | 0.00 | 0.00 | 0.00 | 80 | 985.3 |
| 20260905115306 | 26 | 122 | 1.6 | 1.6 | 0.00 | 0.00 | 0.00 | 77 | 985.2 |
| 20260905114805 | 26 | 134 | 6.4 | 6.4 | 0.00 | 0.00 | 0.00 | 77 | 985.2 |
| 20260905114305 | 26 | 120 | 3.2 | 3.2 | 0.00 | 0.00 | 0.00 | 76 | 985.1 |
| 20260905113805 | 26 | 124 | 3.2 | 3.2 | 0.00 | 0.00 | 0.00 | 77 | 985.1 |
| 20260905113305 | 26 | 126 | 3.2 | 3.2 | 0.00 | 0.00 | 0.00 | 76 | 985.0 |
| 20260905112804 | 26 | 152 | 4.8 | 4.8 | 0.00 | 0.00 | 0.00 | 75 | 984.9 |
| 20260905112306 | 26 | 153 | 3.2 | 3.2 | 0.00 | 0.00 | 0.00 | 75 | 984.9 |
| 20260905111805 | 26 | 153 | 4.8 | 4.8 | 0.00 | 0.00 | 0.00 | 75 | 984.8 |
| 20260905111306 | 26 | 149 | 6.4 | 6.4 | 0.00 | 0.00 | 0.00 | 74 | 984.7 |
| 20260905110805 | 27 | 157 | 6.4 | 6.4 | 0.00 | 0.00 | 0.00 | 74 | 984.7 |
| 20260905110305 | 27 | 147 | 3.2 | 3.2 | 0.00 | 0.00 | 0.00 | 74 | 984.6 |
| 20260905105805 | 27 | 149 | 6.4 | 6.4 | 0.00 | 0.00 | 0.00 | 74 | 984.4 |
| 20260905105306 | 27 | 151 | 9.7 | 9.7 | 0.00 | 0.00 | 0.00 | 74 | 984.5 |
| 20260905104805 | 27 | 125 | 6.4 | 6.4 | 0.00 | 0.00 | 0.00 | 74 | 984.4 |
| 20260905104305 | 27 | 141 | 6.4 | 6.4 | 0.00 | 0.00 | 0.00 | 75 | 984.5 |
| 20260905103805 | 26 | 135 | 9.7 | 9.7 | 0.00 | 0.00 | 0.00 | 75 | 984.4 |
| 20260905103305 | 26 | 140 | 9.7 | 9.7 | 0.00 | 0.00 | 0.00 | 76 | 984.4 |
| 20260905102804 | 26 | 143 | 8.0 | 8.0 | 0.00 | 0.00 | 0.00 | 77 | 984.4 |
| 20260905102306 | 26 | 141 | 8.0 | 8.0 | 0.00 | 0.00 | 0.00 | 78 | 984.5 |
| 20260905101806 | 26 | 141 | 9.7 | 9.7 | 0.00 | 0.00 | 0.00 | 78 | 984.2 |
| 20260905101304 | 26 | 145 | 9.7 | 9.7 | 0.00 | 0.00 | 0.00 | 79 | 984.3 |
| 20260905100805 | 25 | 155 | 14.5 | 14.5 | 0.00 | 0.00 | 0.00 | 79 | 984.2 |
| 20260905100305 | 25 | 151 | 16.1 | 16.1 | 0.00 | 0.00 | 0.00 | 80 | 984.2 |
| 20260905095805 | 25 | 167 | 11.3 | 11.3 | 0.00 | 0.00 | 0.00 | 80 | 984.2 |
| 20260905095306 | 25 | 167 | 12.9 | 12.9 | 0.00 | 0.00 | 0.00 | 80 | 984.2 |
| 20260905094805 | 25 | 155 | 12.9 | 12.9 | 0.00 | 0.00 | 0.00 | 79 | 984.2 |
| 20260905094305 | 26 | 152 | 12.9 | 12.9 | 0.00 | 0.00 | 0.00 | 79 | 984.3 |
| 20260905093805 | 26 | 145 | 11.3 | 11.3 | 0.00 | 0.00 | 0.00 | 79 | 984.2 |
| 20260905093306 | 26 | 151 | 9.7 | 9.7 | 0.00 | 0.00 | 0.00 | 79 | 984.1 |
| 20260905092805 | 26 | 158 | 12.9 | 12.9 | 0.00 | 0.00 | 0.00 | 79 | 984.1 |
| 20260905092306 | 26 | 160 | 9.7 | 9.7 | 0.00 | 0.00 | 0.00 | 78 | 984.2 |
| 20260905091805 | 26 | 160 | 11.3 | 11.3 | 0.00 | 0.00 | 0.00 | 78 | 984.2 |
| 20260905091305 | 26 | 171 | 9.7 | 9.7 | 0.00 | 0.00 | 0.00 | 78 | 984.2 |
| 20260905090805 | 26 | 160 | 14.5 | 14.5 | 0.00 | 0.00 | 0.00 | 75 | 984.2 |
| 20260905090304 | 26 | 143 | 8.0 | 8.0 | 0.00 | 0.00 | 0.00 | 79 | 984.0 |
| 20260905085806 | 27 | 144 | 11.3 | 11.3 | 0.00 | 0.00 | 0.00 | 74 | 984.1 |
| 20260905085306 | 28 | 116 | 8.0 | 8.0 | 0.00 | 0.00 | 0.00 | 69 | 984.1 |
| 20260905084805 | 28 | 117 | 6.4 | 6.4 | 0.00 | 0.00 | 0.00 | 69 | 984.1 |
| 20260905084306 | 27 | 115 | 8.0 | 8.0 | 0.00 | 0.00 | 0.00 | 72 | 984.2 |
| 20260905083805 | 27 | 116 | 4.8 | 4.8 | 0.00 | 0.00 | 0.00 | 70 | 984.1 |
| 20260905083304 | 28 | 124 | 4.8 | 4.8 | 0.00 | 0.00 | 0.00 | 70 | 984.1 |
| 20260905082805 | 28 | 136 | 8.0 | 8.0 | 0.00 | 0.00 | 0.00 | 68 | 984.1 |
| 20260905082307 | 27 | 116 | 4.8 | 4.8 | 0.00 | 0.00 | 0.00 | 68 | 984.1 |
| 20260905081806 | 26 | 67 | 6.4 | 6.4 | 0.00 | 0.00 | 0.00 | 78 | 984.2 |
| 20260905081305 | 27 | 64 | 9.7 | 9.7 | 0.00 | 0.00 | 0.00 | 78 | 984.1 |
| 20260905080805 | 27 | 68 | 6.4 | 6.4 | 0.00 | 0.00 | 0.00 | 73 | 984.0 |
| 20260905080304 | 27 | 81 | 6.4 | 6.4 | 0.00 | 0.00 | 0.00 | 72 | 984.1 |
| 20260905075805 | 27 | 65 | 8.0 | 8.0 | 0.00 | 0.00 | 0.00 | 76 | 984.0 |
| 20260905075306 | 27 | 78 | 6.4 | 6.4 | 0.00 | 0.00 | 0.00 | 69 | 984.1 |
| 20260905074805 | 27 | 97 | 8.0 | 8.0 | 0.00 | 0.00 | 0.00 | 72 | 984.1 |
| 20260905074305 | 27 | 96 | 8.0 | 8.0 | 0.00 | 0.00 | 0.00 | 72 | 984.2 |
| 20260905073805 | 27 | 97 | 9.7 | 9.7 | 0.00 | 0.00 | 0.00 | 72 | 984.2 |
| 20260905073305 | 27 | 86 | 9.7 | 9.7 | 0.00 | 0.00 | 0.00 | 74 | 984.2 |
| 20260905072804 | 27 | 84 | 11.3 | 11.3 | 0.00 | 0.00 | 0.00 | 79 | 984.2 |
| 20260905072306 | 27 | 82 | 11.3 | 11.3 | 0.00 | 0.00 | 0.00 | 79 | 984.1 |
| 20260905071805 | 27 | 84 | 12.9 | 12.9 | 0.00 | 0.00 | 0.00 | 77 | 984.2 |
| 20260905071305 | 28 | 92 | 12.9 | 12.9 | 0.00 | 0.00 | 0.00 | 73 | 984.2 |
| 20260905070805 | 28 | 88 | 11.3 | 11.3 | 0.00 | 0.00 | 0.00 | 67 | 984.1 |
| 20260905070305 | 28 | 88 | 14.5 | 14.5 | 0.00 | 0.00 | 0.00 | 65 | 984.1 |
| 20260905065805 | 28 | 86 | 14.5 | 14.5 | 0.00 | 0.00 | 0.00 | 69 | 984.2 |
| 20260905065307 | 27 | 84 | 14.5 | 14.5 | 0.00 | 0.00 | 0.00 | 75 | 984.2 |
| 20260905064804 | 27 | 82 | 14.5 | 14.5 | 0.00 | 0.00 | 0.00 | 76 | 984.4 |